TimeEDT,TemperatureF,Dew PointF,Humidity,Sea Level PressureIn,VisibilityMPH,Wind Direction,Wind SpeedMPH,Gust SpeedMPH,PrecipitationIn,Events,Conditions,WindDirDegrees,DateUTC
12:53 AM,45.0,39.0,80,30.27,10.0,Calm,Calm,-,N/A,,Clear,0,2011-11-03 04:53:00
1:53 AM,46.9,37.9,71,30.26,10.0,East,3.5,-,N/A,,Clear,90,2011-11-03 05:53:00
2:53 AM,45.0,37.0,74,30.24,10.0,Calm,Calm,-,N/A,,Clear,0,2011-11-03 06:53:00
3:53 AM,42.1,37.0,82,30.22,10.0,Calm,Calm,-,N/A,,Clear,0,2011-11-03 07:53:00
4:53 AM,45.0,37.0,74,30.22,10.0,Calm,Calm,-,N/A,,Partly Cloudy,0,2011-11-03 08:53:00
5:53 AM,42.1,37.0,82,30.22,10.0,Calm,Calm,-,N/A,,Overcast,0,2011-11-03 09:53:00
6:53 AM,44.1,39.0,82,30.21,10.0,Calm,Calm,-,N/A,,Overcast,0,2011-11-03 10:53:00
7:53 AM,46.0,39.9,79,30.18,10.0,ESE,3.5,-,N/A,,Mostly Cloudy,110,2011-11-03 11:53:00
8:53 AM,46.9,39.9,77,30.17,10.0,SE,6.9,-,N/A,,Mostly Cloudy,130,2011-11-03 12:53:00
9:53 AM,50.0,39.0,66,30.17,10.0,SE,5.8,-,N/A,,Overcast,140,2011-11-03 13:53:00
10:53 AM,54.0,39.9,59,30.14,10.0,ESE,8.1,-,N/A,,Overcast,120,2011-11-03 14:53:00
11:53 AM,57.0,39.9,53,30.11,10.0,East,9.2,-,N/A,,Partly Cloudy,100,2011-11-03 15:53:00
12:53 PM,61.0,44.1,54,30.06,10.0,SE,9.2,-,N/A,,Clear,130,2011-11-03 16:53:00
1:53 PM,64.9,46.0,50,29.99,10.0,SE,10.4,16.1,N/A,,Clear,130,2011-11-03 17:53:00
2:53 PM,66.0,48.0,52,29.94,10.0,SE,9.2,16.1,N/A,,Overcast,140,2011-11-03 18:53:00
3:53 PM,64.9,50.0,58,29.90,10.0,SSE,6.9,-,0.00,Rain,Light Rain,160,2011-11-03 19:53:00
4:53 PM,62.1,53.1,72,29.86,10.0,SE,4.6,-,0.00,Rain,Light Rain,140,2011-11-03 20:53:00
5:53 PM,59.0,55.0,87,29.85,8.0,SE,3.5,-,0.06,Rain,Light Rain,130,2011-11-03 21:53:00
6:53 PM,57.9,55.9,93,29.85,2.5,WNW,5.8,19.6,0.12,Rain,Heavy Rain,290,2011-11-03 22:53:00
6:58 PM,57.2,57.2,100,29.88,3.0,WNW,9.2,-,0.01,Rain,Rain,300,2011-11-03 22:58:00
7:11 PM,57.2,57.2,100,29.87,2.0,Calm,Calm,-,0.07,Rain,Rain,0,2011-11-03 23:11:00
7:15 PM,57.2,57.2,100,29.87,2.5,Calm,Calm,-,0.08,Rain,Rain,0,2011-11-03 23:15:00
7:32 PM,57.2,57.2,100,29.86,3.0,Calm,Calm,-,0.15,Rain,Rain,0,2011-11-03 23:32:00
7:42 PM,57.2,57.2,100,29.86,2.5,Calm,Calm,-,0.20,Rain,Heavy Rain,0,2011-11-03 23:42:00
7:45 PM,57.2,57.2,100,29.87,2.0,Calm,Calm,-,0.23,Rain,Heavy Rain,0,2011-11-03 23:45:00
7:51 PM,57.2,55.4,94,29.87,1.5,NW,4.6,-,0.29,Rain,Heavy Rain,310,2011-11-03 23:51:00
7:53 PM,57.0,55.9,96,29.86,1.5,NW,4.6,-,0.30,Rain,Heavy Rain,310,2011-11-03 23:53:00
7:58 PM,57.2,57.2,100,29.87,1.8,NW,3.5,-,0.03,Rain,Heavy Rain,310,2011-11-03 23:58:00
8:06 PM,57.2,57.2,100,29.86,2.5,NNW,3.5,-,0.06,Rain,Rain,340,2011-11-04 00:06:00
8:21 PM,57.2,55.4,94,29.86,5.0,Calm,Calm,-,0.09,Rain,Light Rain,0,2011-11-04 00:21:00
8:53 PM,55.9,55.9,100,29.86,6.0,North,5.8,-,0.10,,Overcast,350,2011-11-04 00:53:00
9:14 PM,55.4,55.4,100,29.86,6.0,WNW,5.8,-,N/A,,Overcast,300,2011-11-04 01:14:00
9:53 PM,50.0,46.9,89,29.87,10.0,West,12.7,23.0,N/A,,Scattered Clouds,280,2011-11-04 01:53:00
10:33 PM,48.2,46.4,93,29.88,10.0,West,13.8,23.0,N/A,,Overcast,280,2011-11-04 02:33:00
10:53 PM,48.0,45.0,89,29.86,10.0,West,15.0,20.7,N/A,,Mostly Cloudy,260,2011-11-04 02:53:00
11:05 PM,48.2,44.6,87,29.87,10.0,West,12.7,-,N/A,,Mostly Cloudy,270,2011-11-04 03:05:00
11:12 PM,48.2,44.6,87,29.88,10.0,West,12.7,-,N/A,,Mostly Cloudy,280,2011-11-04 03:12:00
11:22 PM,46.4,44.6,93,29.87,10.0,West,15.0,-,N/A,,Scattered Clouds,270,2011-11-04 03:22:00
11:53 PM,46.0,43.0,89,29.87,10.0,West,15.0,23.0,N/A,,Scattered Clouds,280,2011-11-04 03:53:00